Time,TemperatureF,DewpointF,PressureIn,WindDirection,WindDirectionDegrees,WindSpeedMPH,WindSpeedGustMPH,Humidity,HourlyPrecipIn,Conditions,Clouds,dailyrainin,SoftwareType,DateUTC
2013-09-13 00:05:00,70.1,68.0,29.75,SSW,211,1.0,6.0,94,0.00,,,0.00,weatherlink.com 1.10,2013-09-13 04:05:00,
2013-09-13 00:20:00,70.3,69.0,29.74,SSE,163,5.0,11.0,94,0.00,,,0.00,weatherlink.com 1.10,2013-09-13 04:20:00,
2013-09-13 00:35:00,70.1,68.0,29.73,SW,214,2.0,5.0,93,0.00,,,0.00,weatherlink.com 1.10,2013-09-13 04:35:00,
2013-09-13 00:50:00,70.1,68.0,29.72,WSW,239,1.0,6.0,94,0.00,,,0.00,weatherlink.com 1.10,2013-09-13 04:50:00,
2013-09-13 01:05:00,70.4,68.0,29.72,North,358,1.0,6.0,93,0.00,,,0.00,weatherlink.com 1.10,2013-09-13 05:05:00,
2013-09-13 01:20:00,70.5,68.0,29.71,South,184,2.0,4.0,93,0.00,,,0.00,weatherlink.com 1.10,2013-09-13 05:20:00,
2013-09-13 01:35:00,70.4,68.0,29.71,SSW,210,1.0,7.0,92,0.00,,,0.00,weatherlink.com 1.10,2013-09-13 05:35:00,
2013-09-13 01:50:00,70.5,68.0,29.70,WNW,299,0.0,4.0,93,0.00,,,0.00,weatherlink.com 1.10,2013-09-13 05:50:00,
2013-09-13 02:05:00,70.6,69.0,29.69,NW,304,1.0,6.0,93,0.00,,,0.00,weatherlink.com 1.10,2013-09-13 06:05:00,
2013-09-13 02:20:00,70.8,69.0,29.68,South,190,0.0,5.0,93,0.00,,,0.00,weatherlink.com 1.10,2013-09-13 06:20:00,
2013-09-13 02:35:00,70.4,68.0,29.68,South,171,0.0,4.0,93,0.00,,,0.00,weatherlink.com 1.10,2013-09-13 06:35:00,
2013-09-13 02:50:00,70.2,69.0,29.67,SE,145,0.0,5.0,94,0.00,,,0.00,weatherlink.com 1.10,2013-09-13 06:50:00,
2013-09-13 03:05:00,70.0,68.0,29.66,SSE,165,1.0,3.0,94,0.00,,,0.00,weatherlink.com 1.10,2013-09-13 07:05:00,
2013-09-13 03:20:00,69.6,68.0,29.66,South,189,0.0,3.0,94,0.00,,,0.00,weatherlink.com 1.10,2013-09-13 07:20:00,
2013-09-13 03:35:00,69.4,68.0,29.66,SSE,156,2.0,4.0,94,0.00,,,0.00,weatherlink.com 1.10,2013-09-13 07:35:00,
2013-09-13 03:50:00,69.3,68.0,29.66,SSE,151,0.0,3.0,95,0.00,,,0.00,weatherlink.com 1.10,2013-09-13 07:50:00,
2013-09-13 04:05:00,69.3,68.0,29.65,SE,137,1.0,5.0,95,0.00,,,0.00,weatherlink.com 1.10,2013-09-13 08:05:00,
2013-09-13 04:20:00,69.3,68.0,29.65,SE,131,1.0,2.0,95,0.00,,,0.00,weatherlink.com 1.10,2013-09-13 08:20:00,
2013-09-13 04:35:00,69.2,68.0,29.65,South,188,0.0,4.0,95,0.00,,,0.00,weatherlink.com 1.10,2013-09-13 08:35:00,
2013-09-13 04:50:00,69.2,68.0,29.65,SE,129,1.0,6.0,95,0.00,,,0.00,weatherlink.com 1.10,2013-09-13 08:50:00,
2013-09-13 05:05:00,69.3,68.0,29.65,SSW,202,0.0,4.0,95,0.00,,,0.00,weatherlink.com 1.10,2013-09-13 09:05:00,
2013-09-13 05:20:00,69.4,68.0,29.64,SSE,160,1.0,6.0,95,0.00,,,0.00,weatherlink.com 1.10,2013-09-13 09:20:00,
2013-09-13 05:35:00,69.5,68.0,29.64,SSE,168,0.0,5.0,95,0.00,,,0.00,weatherlink.com 1.10,2013-09-13 09:35:00,
2013-09-13 05:50:00,69.6,68.0,29.64,South,172,1.0,4.0,95,0.12,,,0.12,weatherlink.com 1.10,2013-09-13 09:50:00,
2013-09-13 06:06:00,69.6,69.0,29.64,SE,140,2.0,4.0,96,0.31,,,0.31,weatherlink.com 1.10,2013-09-13 10:06:00,
2013-09-13 06:21:00,69.6,69.0,29.64,SSE,158,1.0,4.0,96,0.31,,,0.31,weatherlink.com 1.10,2013-09-13 10:21:00,
2013-09-13 06:36:00,69.6,69.0,29.64,SE,143,1.0,3.0,96,0.31,,,0.31,weatherlink.com 1.10,2013-09-13 10:36:00,
2013-09-13 06:51:00,69.4,68.0,29.64,SE,143,1.0,3.0,96,0.16,,,0.31,weatherlink.com 1.10,2013-09-13 10:51:00,
2013-09-13 07:06:00,69.3,68.0,29.65,SSW,195,0.0,4.0,96,0.00,,,0.31,weatherlink.com 1.10,2013-09-13 11:06:00,
2013-09-13 07:21:00,69.4,68.0,29.65,SSE,164,2.0,2.0,96,0.00,,,0.31,weatherlink.com 1.10,2013-09-13 11:21:00,
2013-09-13 07:36:00,69.4,68.0,29.65,WNW,298,0.0,3.0,96,0.00,,,0.31,weatherlink.com 1.10,2013-09-13 11:36:00,
2013-09-13 07:51:00,69.5,68.0,29.64,SE,129,0.0,3.0,96,0.00,,,0.31,weatherlink.com 1.10,2013-09-13 11:51:00,
2013-09-13 08:06:00,69.8,69.0,29.64,West,275,0.0,7.0,97,0.00,,,0.31,weatherlink.com 1.10,2013-09-13 12:06:00,
2013-09-13 08:21:00,70.3,69.0,29.64,West,278,0.0,3.0,97,0.00,,,0.31,weatherlink.com 1.10,2013-09-13 12:21:00,
2013-09-13 08:36:00,70.3,69.0,29.64,WNW,286,0.0,3.0,97,0.00,,,0.31,weatherlink.com 1.10,2013-09-13 12:36:00,
2013-09-13 08:51:00,70.1,69.0,29.64,WNW,300,0.0,5.0,97,0.00,,,0.31,weatherlink.com 1.10,2013-09-13 12:51:00,
2013-09-13 09:06:00,69.7,69.0,29.64,West,274,3.0,8.0,97,0.00,,,0.31,weatherlink.com 1.10,2013-09-13 13:06:00,
2013-09-13 09:21:00,69.5,69.0,29.65,WNW,295,3.0,7.0,97,0.00,,,0.31,weatherlink.com 1.10,2013-09-13 13:21:00,
2013-09-13 09:36:00,69.2,68.0,29.64,WNW,290,3.0,7.0,97,0.00,,,0.31,weatherlink.com 1.10,2013-09-13 13:36:00,
2013-09-13 09:51:00,69.0,68.0,29.64,WNW,288,2.0,5.0,97,0.00,,,0.31,weatherlink.com 1.10,2013-09-13 13:51:00,
2013-09-13 10:06:00,69.2,68.0,29.63,WNW,298,0.0,4.0,97,0.01,,,0.32,weatherlink.com 1.10,2013-09-13 14:06:00,
2013-09-13 10:21:00,69.3,69.0,29.63,NW,319,1.0,4.0,97,0.01,,,0.32,weatherlink.com 1.10,2013-09-13 14:21:00,
2013-09-13 10:36:00,69.7,69.0,29.64,WNW,294,0.0,3.0,97,0.01,,,0.32,weatherlink.com 1.10,2013-09-13 14:36:00,
2013-09-13 10:51:00,69.8,69.0,29.64,West,280,2.0,4.0,97,0.01,,,0.32,weatherlink.com 1.10,2013-09-13 14:51:00,
2013-09-13 11:06:00,69.9,69.0,29.64,WNW,291,3.0,8.0,97,0.00,,,0.32,weatherlink.com 1.10,2013-09-13 15:06:00,
2013-09-13 11:21:00,70.4,70.0,29.63,WNW,292,2.0,6.0,97,0.00,,,0.32,weatherlink.com 1.10,2013-09-13 15:21:00,
2013-09-13 11:36:00,70.4,69.0,29.63,NW,319,3.0,6.0,96,0.00,,,0.32,weatherlink.com 1.10,2013-09-13 15:36:00,
2013-09-13 11:51:00,71.1,70.0,29.63,WNW,297,5.0,6.0,95,0.00,,,0.32,weatherlink.com 1.10,2013-09-13 15:51:00,
2013-09-13 12:06:00,71.1,69.0,29.63,WNW,296,3.0,8.0,93,0.00,,,0.32,weatherlink.com 1.10,2013-09-13 16:06:00,
2013-09-13 12:21:00,71.5,69.0,29.63,NW,317,3.0,6.0,93,0.00,,,0.32,weatherlink.com 1.10,2013-09-13 16:21:00,
2013-09-13 12:36:00,71.9,69.0,29.63,West,268,6.0,6.0,91,0.00,,,0.32,weatherlink.com 1.10,2013-09-13 16:36:00,
2013-09-13 12:51:00,72.2,70.0,29.62,WNW,283,4.0,9.0,91,0.00,,,0.32,weatherlink.com 1.10,2013-09-13 16:51:00,
2013-09-13 13:06:00,72.6,69.0,29.62,WNW,289,1.0,10.0,89,0.00,,,0.32,weatherlink.com 1.10,2013-09-13 17:06:00,
2013-09-13 13:21:00,72.4,68.0,29.62,WSW,258,6.0,7.0,87,0.00,,,0.32,weatherlink.com 1.10,2013-09-13 17:21:00,
2013-09-13 13:36:00,72.9,68.0,29.61,NNW,337,2.0,6.0,85,0.00,,,0.32,weatherlink.com 1.10,2013-09-13 17:36:00,
2013-09-13 13:51:00,74.2,69.0,29.60,NW,317,2.0,5.0,83,0.00,,,0.32,weatherlink.com 1.10,2013-09-13 17:51:00,
2013-09-13 14:07:00,74.9,68.0,29.60,WNW,300,4.0,8.0,80,0.00,,,0.32,weatherlink.com 1.10,2013-09-13 18:07:00,
2013-09-13 14:22:00,73.8,68.0,29.61,West,272,2.0,6.0,83,0.00,,,0.32,weatherlink.com 1.10,2013-09-13 18:22:00,
2013-09-13 14:37:00,73.0,68.0,29.62,WNW,291,3.0,6.0,84,0.00,,,0.32,weatherlink.com 1.10,2013-09-13 18:37:00,
2013-09-13 14:52:00,73.7,69.0,29.62,WNW,292,2.0,7.0,85,0.00,,,0.32,weatherlink.com 1.10,2013-09-13 18:52:00,
2013-09-13 15:07:00,73.9,69.0,29.62,SSW,210,3.0,9.0,84,0.00,,,0.32,weatherlink.com 1.10,2013-09-13 19:07:00,
2013-09-13 15:22:00,74.9,68.0,29.61,West,262,1.0,9.0,80,0.00,,,0.32,weatherlink.com 1.10,2013-09-13 19:22:00,
2013-09-13 15:37:00,74.7,67.0,29.61,SSW,208,0.0,10.0,78,0.00,,,0.32,weatherlink.com 1.10,2013-09-13 19:37:00,
2013-09-13 15:52:00,75.7,69.0,29.61,WSW,245,3.0,8.0,79,0.00,,,0.32,weatherlink.com 1.10,2013-09-13 19:52:00,
2013-09-13 16:07:00,75.5,69.0,29.62,WNW,282,0.0,11.0,79,0.00,,,0.32,weatherlink.com 1.10,2013-09-13 20:07:00,
2013-09-13 16:22:00,75.2,68.0,29.62,WNW,288,7.0,12.0,77,0.00,,,0.32,weatherlink.com 1.10,2013-09-13 20:22:00,
2013-09-13 16:37:00,74.3,67.0,29.62,WSW,250,3.0,12.0,79,0.00,,,0.32,weatherlink.com 1.10,2013-09-13 20:37:00,
2013-09-13 16:52:00,73.8,68.0,29.63,WNW,300,2.0,13.0,81,0.00,,,0.32,weatherlink.com 1.10,2013-09-13 20:52:00,
2013-09-13 17:07:00,73.0,67.0,29.63,West,261,9.0,11.0,82,0.00,,,0.32,weatherlink.com 1.10,2013-09-13 21:07:00,
2013-09-13 17:22:00,72.3,67.0,29.63,WSW,250,9.0,9.0,84,0.00,,,0.32,weatherlink.com 1.10,2013-09-13 21:22:00,
2013-09-13 17:37:00,72.0,67.0,29.63,West,274,4.0,9.0,85,0.00,,,0.32,weatherlink.com 1.10,2013-09-13 21:37:00,
2013-09-13 17:52:00,72.0,67.0,29.64,SE,127,0.0,8.0,85,0.00,,,0.32,weatherlink.com 1.10,2013-09-13 21:52:00,
2013-09-13 18:07:00,71.3,66.0,29.64,SW,220,3.0,11.0,84,0.00,,,0.32,weatherlink.com 1.10,2013-09-13 22:07:00,
2013-09-13 18:22:00,70.4,66.0,29.64,West,269,4.0,7.0,85,0.00,,,0.32,weatherlink.com 1.10,2013-09-13 22:22:00,
2013-09-13 18:37:00,69.7,65.0,29.65,West,278,4.0,8.0,85,0.00,,,0.32,weatherlink.com 1.10,2013-09-13 22:37:00,
2013-09-13 18:52:00,69.0,64.0,29.65,West,279,4.0,9.0,85,0.00,,,0.32,weatherlink.com 1.10,2013-09-13 22:52:00,
2013-09-13 19:07:00,68.5,65.0,29.66,NW,326,2.0,7.0,87,0.00,,,0.32,weatherlink.com 1.10,2013-09-13 23:07:00,
2013-09-13 19:22:00,68.1,65.0,29.67,WSW,244,3.0,8.0,89,0.00,,,0.32,weatherlink.com 1.10,2013-09-13 23:22:00,
2013-09-13 19:37:00,68.0,65.0,29.67,WSW,257,2.0,8.0,90,0.00,,,0.32,weatherlink.com 1.10,2013-09-13 23:37:00,
2013-09-13 19:52:00,68.1,65.0,29.68,West,276,3.0,9.0,90,0.00,,,0.32,weatherlink.com 1.10,2013-09-13 23:52:00,
2013-09-13 20:07:00,68.0,65.0,29.70,NW,319,5.0,7.0,90,0.00,,,0.32,weatherlink.com 1.10,2013-09-14 00:07:00,
2013-09-13 20:22:00,68.0,65.0,29.70,WSW,249,6.0,7.0,91,0.00,,,0.32,weatherlink.com 1.10,2013-09-14 00:22:00,
2013-09-13 20:37:00,67.9,65.0,29.71,NNW,338,5.0,7.0,90,0.00,,,0.32,weatherlink.com 1.10,2013-09-14 00:37:00,
2013-09-13 20:52:00,68.1,64.0,29.71,NW,323,6.0,7.0,85,0.00,,,0.32,weatherlink.com 1.10,2013-09-14 00:52:00,
2013-09-13 21:07:00,67.9,64.0,29.72,NNW,338,3.0,7.0,86,0.00,,,0.32,weatherlink.com 1.10,2013-09-14 01:07:00,
2013-09-13 21:37:00,67.4,63.0,29.72,NW,315,1.0,7.0,85,0.00,,,0.32,weatherlink.com 1.10,2013-09-14 01:37:00,
2013-09-13 21:52:00,66.8,62.0,29.73,North,1,0.0,7.0,85,0.00,,,0.32,weatherlink.com 1.10,2013-09-14 01:52:00,
2013-09-13 22:07:00,66.4,62.0,29.73,WNW,302,0.0,9.0,85,0.00,,,0.32,weatherlink.com 1.10,2013-09-14 02:07:00,
2013-09-13 22:22:00,65.9,62.0,29.74,NNW,331,2.0,6.0,86,0.00,,,0.32,weatherlink.com 1.10,2013-09-14 02:22:00,
2013-09-13 22:37:00,65.6,62.0,29.73,NNW,344,2.0,5.0,87,0.00,,,0.32,weatherlink.com 1.10,2013-09-14 02:37:00,
2013-09-13 22:52:00,65.8,62.0,29.73,North,359,4.0,7.0,87,0.00,,,0.32,weatherlink.com 1.10,2013-09-14 02:52:00,
2013-09-13 23:07:00,65.8,62.0,29.74,North,359,1.0,10.0,87,0.00,,,0.32,weatherlink.com 1.10,2013-09-14 03:07:00,
2013-09-13 23:22:00,65.4,62.0,29.74,NW,314,2.0,6.0,87,0.00,,,0.32,weatherlink.com 1.10,2013-09-14 03:22:00,
2013-09-13 23:37:00,64.9,61.0,29.75,NNW,333,5.0,7.0,87,0.00,,,0.32,weatherlink.com 1.10,2013-09-14 03:37:00,
2013-09-13 23:52:00,64.1,60.0,29.75,NNW,344,1.0,6.0,87,0.00,,,0.32,weatherlink.com 1.10,2013-09-14 03:52:00,